HST
1 20580U 90037B   24108.14675951  .00012782  00000-0  62380-3 0  9999
2 20580  28.4697  33.8214 0002605  86.3698 273.7193 15.16756159668016
ISS (ZARYA)
1 25544U 98067A   24108.06679608  .00019473  00000-0  34469-3 0  9990
2 25544  51.6384 258.4693 0004986  70.1481  42.8477 15.50291806449066
CXO
1 25867U 99040B   24109.68742308  .00000930  00000-0  00000+0 0  9995
2 25867  39.8987 159.5880 8946259 292.2469 359.9679  0.37811468 25493